Weather History for Beverly, MA

Change the Weather History Date:

Tuesday, October 30, 2012

  Actual Average Record
Temperature  
Mean Temperature 60 °F -  
Max Temperature 66 °F 54 °F 66 °F (2012)
Min Temperature 55 °F 35 °F 26 °F (2008)
Degree Days  
Heating Degree Days 6    
Growing Degree Days 10 (Base 50)    
Moisture  
Dew Point 57 °F    
Average Humidity 87    
Maximum Humidity 94    
Minimum Humidity 75    
Precipitation  
Precipitation 0.62 in - - ()
Sea Level Pressure  
Sea Level Pressure 29.50 in    
Wind  
Wind Speed 13 mph (SE)    
Max Wind Speed 18 mph    
Max Gust Speed 30 mph    
Visibility 6 miles    
Events Rain , Thunderstorm    
Averages and records for this station are not official NWS values.
T = Trace of Precipitation, MM = Missing Value Source: NWS Daily Summary

Daily Weather History Graph

Daily Weather History Graph

Search for Another Location

Airport:

Trip Planner

Search our weather history database for the weather conditions in past years. The results will help you decide how hot, cold, wet, or windy it might be!

Date:

Astronomy

Oct. 30, 2012 Rise Set
Actual Time 7:15 AM EDT 5:38 PM EDT
Civil Twilight 6:46 AM EDT 6:07 PM EDT
Nautical Twilight 6:13 AM EDT 6:40 PM EDT
Astronomical Twilight 5:40 AM EDT 7:13 PM EDT
Moon 6:04 PM EDT (10/30) 8:00 AM EDT (10/30)
Length of Visible Light 11h 21m
Length of Day
10h 23m
Full, 99% of the Moon is Illuminated
Oct 30
Full
Nov 6
Last Quarter
Nov 13
New
Nov 20
First Quarter
Nov 28
Full

Hourly Weather History & Observations

Time (EDT) Temp. Dew Point Humidity Pressure Visibility Wind Dir Wind Speed Gust Speed Precip Events Conditions
12:18 AM 62.6 °F 60.8 °F 94% 29.33 in 5.0 mi ESE 18.4 mph 29.9 mph N/A   Overcast
12:53 AM 62.1 °F 59.0 °F 90% 29.34 in 4.0 mi SE 13.8 mph 23.0 mph 0.01 in Rain Light Rain
1:14 AM 60.8 °F 59.0 °F 94% 29.36 in 5.0 mi ESE 17.3 mph 26.5 mph 0.00 in   Overcast
1:27 AM 62.6 °F 57.2 °F 82% 29.36 in 6.0 mi ESE 13.8 mph 21.9 mph 0.00 in   Overcast
1:53 AM 62.1 °F 57.9 °F 86% 29.36 in 6.0 mi SE 16.1 mph 25.3 mph 0.00 in   Overcast
2:06 AM 62.6 °F 57.2 °F 82% 29.37 in 7.0 mi ESE 12.7 mph - N/A   Overcast
2:53 AM 61.0 °F 57.0 °F 87% 29.38 in 6.0 mi ESE 12.7 mph 24.2 mph N/A   Overcast
3:53 AM 61.0 °F 57.0 °F 87% 29.37 in 6.0 mi East 13.8 mph 24.2 mph 0.01 in   Overcast
4:04 AM 60.8 °F 57.2 °F 88% 29.40 in 6.0 mi ESE 15.0 mph 23.0 mph N/A   Overcast
4:29 AM 60.8 °F 57.2 °F 88% 29.41 in 6.0 mi ESE 12.7 mph 23.0 mph N/A   Mostly Cloudy
4:45 AM 60.8 °F 57.2 °F 88% 29.42 in 7.0 mi ESE 16.1 mph - N/A   Overcast
4:53 AM 61.0 °F 57.0 °F 87% 29.40 in 7.0 mi ESE 15.0 mph 24.2 mph N/A   Overcast
5:02 AM 60.8 °F 57.2 °F 88% 29.42 in 7.0 mi ESE 15.0 mph 26.5 mph N/A   Overcast
5:30 AM 60.8 °F 57.2 °F 88% 29.42 in 8.0 mi ESE 12.7 mph 20.7 mph N/A   Mostly Cloudy
5:53 AM 61.0 °F 55.9 °F 83% 29.42 in 8.0 mi ESE 16.1 mph 23.0 mph 0.00 in   Overcast
6:53 AM 60.8 °F 55.4 °F 82% 29.47 in 9.0 mi SE 17.3 mph 27.6 mph N/A Rain Light Rain
7:53 AM 60.1 °F 55.0 °F 83% 29.48 in 7.0 mi SE 12.7 mph 20.7 mph 0.00 in   Overcast
8:53 AM 61.0 °F 55.9 °F 83% 29.52 in 8.0 mi SE 16.1 mph 23.0 mph 0.00 in Rain Light Rain
9:53 AM 61.0 °F 55.9 °F 83% 29.55 in 6.0 mi SE 8.1 mph 18.4 mph 0.00 in Rain Light Rain
10:31 AM 60.8 °F 57.2 °F 88% 29.57 in 6.0 mi SE 10.4 mph - N/A   Overcast
10:38 AM 60.8 °F 57.2 °F 88% 29.57 in 6.0 mi SE 11.5 mph 18.4 mph 0.01 in   Overcast
10:53 AM 61.0 °F 57.9 °F 90% 29.57 in 7.0 mi SE 13.8 mph 20.7 mph 0.01 in   Overcast
11:09 AM 60.8 °F 57.2 °F 88% 29.58 in 6.0 mi SE 10.4 mph - N/A   Overcast
11:53 AM 61.0 °F 57.0 °F 87% 29.57 in 8.0 mi SE 13.8 mph - 0.00 in   Overcast
12:53 PM 64.9 °F 57.0 °F 75% 29.57 in 10.0 mi SE 16.1 mph 21.9 mph N/A   Partly Cloudy
1:53 PM 63.0 °F 57.9 °F 84% 29.57 in 10.0 mi SE 12.7 mph - N/A   Mostly Cloudy
2:53 PM 62.1 °F 57.9 °F 86% 29.56 in 5.0 mi ESE 9.2 mph - 0.03 in Rain Light Rain
3:53 PM 61.0 °F 57.9 °F 90% 29.56 in 6.0 mi ESE 6.9 mph - 0.01 in   Overcast
4:53 PM 61.0 °F 57.9 °F 90% 29.53 in 8.0 mi East 8.1 mph - 0.00 in Rain Light Rain
5:53 PM 61.0 °F 59.0 °F 93% 29.54 in 3.0 mi SE 6.9 mph - 0.11 in Rain Light Rain
6:01 PM 60.8 °F 57.2 °F 88% 29.56 in 2.0 mi SE 9.2 mph - 0.12 in Rain Heavy Rain
6:03 PM 60.8 °F 57.2 °F 88% 29.55 in 1.8 mi ESE 10.4 mph - 0.14 in Rain , Thunderstorm Heavy Thunderstorms and Rain
6:05 PM 60.8 °F 57.2 °F 88% 29.55 in 2.0 mi East 8.1 mph - 0.15 in Rain , Thunderstorm Heavy Thunderstorms and Rain
6:15 PM 60.8 °F 57.2 °F 88% 29.55 in 4.0 mi East 8.1 mph - 0.18 in Rain , Thunderstorm Thunderstorms and Rain
6:17 PM 60.8 °F 57.2 °F 88% 29.54 in 5.0 mi East 11.5 mph - 0.18 in Rain Rain
6:24 PM 60.8 °F 57.2 °F 88% 29.54 in 6.0 mi ESE 10.4 mph - 0.19 in Rain Light Rain
6:53 PM 60.1 °F 57.0 °F 90% 29.53 in 9.0 mi ESE 10.4 mph 17.3 mph 0.19 in   Overcast
7:05 PM 60.8 °F 57.2 °F 88% 29.54 in 8.0 mi ESE 8.1 mph - N/A   Overcast
7:27 PM 60.8 °F 57.2 °F 88% 29.54 in 8.0 mi SE 10.4 mph - N/A   Overcast
7:53 PM 59.0 °F 57.0 °F 93% 29.52 in 7.0 mi SE 8.1 mph - N/A   Mostly Cloudy
8:01 PM 59.0 °F 55.4 °F 88% 29.53 in 7.0 mi SE 9.2 mph - N/A   Mostly Cloudy
8:36 PM 59.0 °F 55.4 °F 88% 29.62 in 3.0 mi SSE 16.1 mph - 0.09 in Rain , Thunderstorm Light Thunderstorms and Rain
8:39 PM 59.0 °F 55.4 °F 88% 29.59 in 1.8 mi South 17.3 mph 27.6 mph 0.20 in Rain , Thunderstorm Heavy Thunderstorms and Rain
8:49 PM 57.2 °F 53.6 °F 88% 29.56 in 3.0 mi South 8.1 mph 24.2 mph 0.24 in Rain , Thunderstorm Thunderstorms and Rain
8:53 PM 57.9 °F 53.1 °F 84% 29.55 in 6.0 mi SE 8.1 mph - 0.25 in Rain Light Rain
8:58 PM 57.2 °F 51.8 °F 82% 29.56 in 10.0 mi SE 9.2 mph - 0.00 in Rain Light Rain
9:53 PM 55.0 °F 52.0 °F 89% 29.55 in 10.0 mi Calm Calm - 0.00 in   Mostly Cloudy
10:53 PM 55.9 °F 53.1 °F 90% 29.53 in 10.0 mi ESE 5.8 mph - N/A   Clear
11:53 PM 55.9 °F 53.1 °F 90% 29.53 in 10.0 mi Calm Calm - N/A   Clear